SUNNYSIDE Weather Reports


time (UTC)temp
F
wind
direction
speed
knots
gust
knots
rain 1hr
in
rain 24hr
in
rain mn
in
humidity
%
barometer
mb
20260504050537 49 291 9.6 16.5 0.01 0.01 0.01 49 964.2
20260504045535 49 279 7.0 10.4 0.00 0.00 0.00 49 964.0
20260504045035 49 257 7.0 13.0 0.00 0.00 0.00 49 963.9
20260504044537 49 242 7.0 13.0 0.00 0.00 0.00 49 963.9
20260504044036 48 255 7.8 11.3 0.00 0.00 0.00 49 963.8
20260504043536 48 255 6.1 11.3 0.00 0.00 0.00 50 963.9
20260504043037 48 264 7.0 11.3 0.00 0.00 0.00 49 964.0
20260504042535 48 234 7.0 12.2 0.00 0.00 0.00 49 964.0
20260504042034 48 360 7.8 12.2 0.00 0.00 0.00 51 964.0
20260504041534 47 232 6.1 10.4 0.00 0.00 0.00 54 964.1
20260504041034 47 240 5.2 8.7 0.00 0.00 0.00 53 964.2
20260504040537 48 360 5.2 9.6 0.00 0.00 0.00 52 964.2
20260504040034 48 240 7.0 9.6 0.00 0.00 0.00 50 964.2
20260504035534 48 226 4.3 7.8 0.00 0.00 0.00 51 964.1
20260504035034 48 242 5.2 7.8 0.00 0.00 0.00 51 964.1
20260504034534 49 240 4.3 9.6 0.00 0.00 0.00 51 964.2
20260504034037 48 252 4.3 11.3 0.00 0.00 0.00 50 964.0
20260504033533 48 239 3.5 18.2 0.00 0.00 0.00 51 964.3
20260504033040 47 226 8.7 18.2 0.00 0.00 0.00 54 964.9
20260504032537 47 248 6.1 13.0 0.00 0.00 0.00 55 965.1
20260504032035 47 246 8.7 14.8 0.00 0.00 0.00 55 965.1
20260504031533 48 255 8.7 17.4 0.00 0.00 0.00 56 965.3
20260504031032 48 294 10.4 18.2 0.00 0.00 0.00 56 965.7
20260504030532 49 257 9.6 19.1 0.00 0.00 0.00 56 966.0
20260504030033 49 280 13.9 25.2 0.00 0.00 0.00 55 966.1
20260504025532 50 290 16.5 26.9 0.00 0.00 0.00 54 966.1
20260504025034 52 284 15.6 24.3 0.00 0.00 0.00 50 965.9
20260504024541 53 263 16.5 24.3 0.00 0.00 0.00 46 965.8
20260504024032 54 267 17.4 25.2 0.00 0.00 0.00 45 965.6
20260504023532 54 269 14.8 28.7 0.00 0.00 0.00 45 965.6
20260504023032 55 291 17.4 30.4 0.00 0.00 0.00 42 965.3
20260504022535 57 269 18.2 30.4 0.00 0.00 0.00 39 965.1
20260504022032 58 285 13.0 24.3 0.00 0.00 0.00 37 964.9
20260504021532 59 277 13.0 28.7 0.00 0.00 0.00 34 964.6
20260504021030 59 263 12.2 28.7 0.00 0.00 0.00 32 964.3
20260504020530 59 285 13.0 22.6 0.00 0.00 0.00 30 964.4
20260504020030 60 286 10.4 17.4 0.00 0.00 0.00 31 964.2
20260504015530 60 360 8.7 13.9 0.00 0.00 0.00 30 964.1
20260504015033 61 306 7.8 15.6 0.00 0.00 0.00 30 964.0
20260504014530 61 360 10.4 20.0 0.00 0.00 0.00 28 964.1
20260504014032 61 302 11.3 17.4 0.00 0.00 0.00 28 964.0
20260504013531 61 306 9.6 17.4 0.00 0.00 0.00 29 964.0
20260504013037 61 288 8.7 15.6 0.00 0.00 0.00 29 964.0
20260504012531 61 296 8.7 15.6 0.00 0.00 0.00 28 963.9
20260504012030 62 360 9.6 15.6 0.00 0.00 0.00 27 963.7
20260504011530 62 360 8.7 13.9 0.00 0.00 0.00 27 963.7
20260504011032 63 360 8.7 16.5 0.00 0.00 0.00 26 963.7
20260504010530 63 360 11.3 17.4 0.00 0.00 0.00 25 963.7
20260504010029 64 360 9.6 17.4 0.00 0.00 0.00 26 963.7
20260504005528 64 360 6.1 12.2 0.00 0.00 0.00 28 963.7
20260504005028 65 302 6.1 19.1 0.00 0.00 0.00 26 963.6
20260504004528 65 282 10.4 19.1 0.00 0.00 0.00 24 963.5
20260504004027 66 276 8.7 14.8 0.00 0.00 0.00 25 963.6
20260504003527 66 360 8.7 14.8 0.00 0.00 0.00 25 963.7
20260504003038 66 254 9.6 13.9 0.00 0.00 0.00 25 963.7
20260504002529 66 273 8.7 13.9 0.00 0.00 0.00 25 963.8
20260504002025 67 360 7.8 12.2 0.00 0.00 0.00 25 963.9
20260504001525 67 292 7.8 15.6 0.00 0.00 0.00 25 964.0
20260504001028 67 292 7.8 15.6 0.00 0.00 0.00 25 964.0
20260504000523 67 360 9.6 15.6 0.00 0.00 0.00 27 964.1
20260504000023 68 236 7.8 14.8 0.00 0.00 0.00 31 964.1
20260503235522 68 360 8.7 17.4 0.00 0.00 0.00 31 964.0
20260503235022 68 275 12.2 17.4 0.00 0.00 0.00 31 964.1
20260503234522 68 245 11.3 17.4 0.00 0.00 0.00 31 964.1
20260503234022 68 273 8.7 18.2 0.00 0.00 0.00 32 964.2
20260503233523 68 249 12.2 22.6 0.00 0.00 0.00 33 964.3
20260503233024 68 245 13.9 22.6 0.00 0.00 0.00 32 964.3
20260503232523 68 236 12.2 21.7 0.00 0.00 0.00 32 964.5
20260503232019 68 229 13.9 20.9 0.00 0.00 0.00 32 964.4
20260503231519 68 236 13.0 24.3 0.00 0.00 0.00 32 964.6
20260503231022 68 360 15.6 24.3 0.00 0.00 0.00 32 964.7
20260503230519 69 220 15.6 26.9 0.00 0.00 0.00 32 964.5
20260503230017 69 360 20.9 27.8 0.00 0.00 0.00 32 964.6
20260503225517 68 238 17.4 27.8 0.00 0.00 0.00 33 964.7
20260503225021 67 236 15.6 28.7 0.00 0.00 0.00 34 964.7
20260503224526 68 242 21.7 28.7 0.00 0.00 0.00 33 964.8
20260503224016 67 248 21.7 28.7 0.00 0.00 0.00 34 964.8
20260503223517 67 244 18.2 27.8 0.00 0.00 0.00 35 964.9
20260503223016 67 230 19.1 31.3 0.00 0.00 0.00 34 964.9
20260503222514 67 227 20.9 31.3 0.00 0.00 0.00 34 965.1
20260503222014 67 237 18.2 32.2 0.00 0.00 0.00 34 965.1
20260503221515 67 254 19.1 31.3 0.00 0.00 0.00 33 965.1
20260503221013 67 253 20.0 27.8 0.00 0.00 0.00 33 965.1
20260503220514 66 261 19.1 26.9 0.00 0.00 0.00 32 964.9
20260503220020 66 233 19.1 27.8 0.00 0.00 0.00 33 965.0
20260503215511 66 360 20.0 29.5 0.00 0.00 0.00 33 965.3
20260503215010 66 245 19.1 32.2 0.00 0.00 0.00 32 965.5
20260503214511 67 238 20.0 33.0 0.00 0.00 0.00 30 965.6
20260503214010 68 243 16.5 29.5 0.00 0.00 0.00 29 965.8
20260503213509 67 360 14.8 30.4 0.00 0.00 0.00 28 965.6
20260503213011 68 271 14.8 30.4 0.00 0.00 0.00 27 965.7
20260503212515 69 269 18.2 29.5 0.00 0.00 0.00 23 966.0
20260503212008 70 257 13.9 27.8 0.00 0.00 0.00 22 966.0
20260503211508 71 261 13.0 21.7 0.00 0.00 0.00 19 966.0
20260503211008 71 242 12.2 21.7 0.00 0.00 0.00 19 965.7
20260503210508 71 223 14.8 20.0 0.00 0.00 0.00 20 965.5
20260503210008 72 241 13.9 26.9 0.00 0.00 0.00 18 965.7
20260503205506 72 222 15.6 22.6 0.00 0.00 0.00 19 965.7
20260503205006 72 237 16.5 22.6 0.00 0.00 0.00 19 966.0
20260503204505 71 246 15.6 20.9 0.00 0.00 0.00 18 966.0
20260503204003 70 221 12.2 18.2 0.00 0.00 0.00 19 966.2
20260503203503 70 228 13.0 20.9 0.00 0.00 0.00 21 966.4
20260503203002 70 236 12.2 20.9 0.00 0.00 0.00 21 966.4
20260503202502 70 246 11.3 18.2 0.00 0.00 0.00 19 966.5
20260503202002 70 248 10.4 22.6 0.00 0.00 0.00 20 966.5
20260503201602 70 247 12.2 22.6 0.00 0.00 0.00 20 966.5
20260503201103 70 251 15.6 21.7 0.00 0.00 0.00 19 966.7
20260503200559 70 233 9.6 18.2 0.00 0.00 0.00 18 966.7
20260503200058 70 222 11.3 24.3 0.00 0.00 0.00 19 966.9
20260503195557 70 238 18.2 24.3 0.00 0.00 0.00 19 967.3
20260503195056 70 238 13.9 20.9 0.00 0.00 0.00 19 967.5
20260503194601 70 220 12.2 20.9 0.00 0.00 0.00 20 967.6
20260503194054 71 360 13.0 26.1 0.00 0.00 0.00 19 967.8
20260503193554 71 234 14.8 26.1 0.00 0.00 0.00 20 968.1
20260503193053 71 233 15.6 21.7 0.00 0.00 0.00 19 968.3
20260503192552 71 242 11.3 21.7 0.00 0.00 0.00 20 968.4
20260503192051 70 231 15.6 25.2 0.00 0.00 0.00 20 968.6
20260503191550 70 236 15.6 25.2 0.00 0.00 0.00 21 968.8
20260503191049 70 246 13.9 23.5 0.00 0.00 0.00 20 968.9
20260503190547 70 238 13.0 22.6 0.00 0.00 0.00 19 969.0
20260503190047 70 360 13.9 23.5 0.00 0.00 0.00 21 969.3
20260503185545 70 217 16.5 24.3 0.00 0.00 0.00 22 969.6
20260503185047 69 255 14.8 21.7 0.00 0.00 0.00 21 969.7
20260503184601 69 249 12.2 21.7 0.00 0.00 0.00 23 970.0
20260503184043 68 230 11.3 19.1 0.00 0.00 0.00 23 970.2
20260503183542 68 244 10.4 20.9 0.00 0.00 0.00 23 970.3
20260503183048 68 215 13.9 20.0 0.00 0.00 0.00 23 970.4
20260503182541 68 245 11.3 19.1 0.00 0.00 0.00 24 970.5
20260503182040 69 203 10.4 22.6 0.00 0.00 0.00 24 970.7
20260503181540 68 237 11.3 22.6 0.00 0.00 0.00 23 970.8
20260503181038 69 250 17.4 22.6 0.00 0.00 0.00 23 971.1
20260503180536 68 225 13.0 20.0 0.00 0.00 0.00 25 971.2
20260503180037 68 257 11.3 21.7 0.00 0.00 0.00 23 971.4
20260503175534 68 215 14.8 20.9 0.00 0.00 0.00 25 971.5
20260503175037 68 240 11.3 20.0 0.00 0.00 0.00 26 971.5
20260503174534 67 276 13.0 20.0 0.00 0.00 0.00 25 971.7
20260503174034 67 232 9.6 19.1 0.00 0.00 0.00 24 971.8
20260503173534 67 233 11.3 20.0 0.00 0.00 0.00 25 972.1
20260503173035 68 230 11.3 20.0 0.00 0.00 0.00 26 972.3
20260503172532 68 229 12.2 20.0 0.00 0.00 0.00 26 972.2
20260503172029 67 243 7.0 17.4 0.00 0.00 0.00 27 972.3
20260503171531 67 221 11.3 17.4 0.00 0.00 0.00 25 972.5
20260503171026 67 213 8.7 14.8 0.00 0.00 0.00 25 972.7
20260503170525 66 222 9.6 17.4 0.00 0.00 0.00 28 972.8
20260503150552 57 268 8.7 13.9 0.00 0.00 0.00 38 976.3
20260503131025 46 360 5.2 9.6 0.00 0.00 0.00 48 978.3
20260503130522 46 232 4.3 8.7 0.00 0.00 0.00 49 978.2
20260503110503 35 229 3.5 5.2 0.00 0.00 0.00 55 979.1
20260503081544 37 228 3.5 6.1 0.00 0.00 0.00 51 980.1
20260503081043 37 234 3.5 6.1 0.00 0.00 0.00 52 980.2
20260503080544 37 232 2.6 4.3 0.00 0.00 0.00 52 980.1
20260503072540 39 264 1.7 4.3 0.00 0.00 0.00 47 980.3
20260503072042 39 360 2.6 4.3 0.00 0.00 0.00 47 980.3
20260503071557 39 265 2.6 4.3 0.00 0.00 0.00 48 980.3
20260503071038 39 360 2.6 4.3 0.00 0.00 0.00 49 980.4
20260503070537 38 360 2.6 4.3 0.00 0.00 0.00 50 980.4
20260503055030 40 269 3.5 6.1 0.00 0.00 0.00 48 980.7
20260503054529 40 281 1.7 4.3 0.00 0.00 0.00 48 980.7
20260503054028 40 273 2.6 4.3 0.00 0.00 0.00 48 980.6
20260503053528 40 285 1.7 3.5 0.00 0.00 0.00 48 980.6
20260503053034 40 276 1.7 3.5 0.00 0.00 0.00 47 980.6
20260503052526 40 282 1.7 4.3 0.00 0.00 0.00 47 980.6
20260503052028 41 285 2.6 5.2 0.00 0.00 0.00 46 980.6